Weather observations for the past three days for
New Stuyahok
Imperial (Metric)
Date Time (akdt) Wind (mph) Vis. (mi.) Weather Sky Cond. Temperature (ºF) Relative Humidity Wind Chill (°F) Heat Index (°F) Pressure Precipitation (in)
Air Dwpt 6 hour altimeter (in) sea level (mb) 1 hr 3 hr 6 hr
Max. Min.
10 06:56 S 10 10.00 Overcast FEW048 OVC065 28 26.1 92% 19 29.46 998.2
10 05:56 S 10 10.00 Mostly Cloudy BKN007 BKN050 28 26.1 92% 19 29.45 997.7
10 04:56 S 9 10.00 Mostly Cloudy BKN055 BKN110 28 26.1 92% 20 29.44 997.6
10 03:56 SW 12 10.00 Overcast OVC070 30 27 44.1 30 88% 21 29.42 997.0
10 02:56 SW 8 10.00 Overcast OVC070 32 28 85% 25 29.4 996.2
10 01:56 Vrbl 3 10.00 Mostly Cloudy FEW040 BKN110 37.9 25 60% 29.38 995.6
10 00:56 NW 6 10.00 Mostly Cloudy FEW070 BKN110 36 25 64% 32 29.38 995.4
09 23:56 W 8 10.00 Overcast OVC080 39 26.1 60% 34 29.37 995.2
09 22:56 W 8 10.00 Overcast BKN080 OVC100 41 25 53% 36 29.37 995.1
09 21:56 W 8 10.00 Overcast OVC070 44.1 24.1 50 44.1 45% 40 29.35 994.4
09 20:56 W 8 10.00 Overcast OVC080 46 19 34% 42 29.34 994.0
09 19:56 NW 5 10.00 Overcast SCT070 BKN085 OVC100 46.9 19.9 34% 45 29.34 994.2
09 18:56 NW 9 10.00 Mostly Cloudy BKN100 46.9 19.9 34% 43 29.34 994.2
09 16:56 NW 9 10.00 Mostly Cloudy BKN075 46.9 18 31% 43 29.36 994.7
09 15:56 N 9 10.00 Mostly Cloudy BKN070 BKN085 48.9 19.9 50 39.9 32% 45 29.36 995.0
09 14:56 N 10 10.00 Mostly Cloudy BKN070 48 19.9 33% 44 29.37 995.3
09 13:56 N 7 10.00 Partly Cloudy SCT065 46 19 34% 43 29.38 995.5
09 12:56 N 8 10.00 Fair CLR 46.9 24.1 41% 44 29.39 995.7
09 11:56 N 9 G 17 10.00 Fair CLR 45 25 46% 41 29.4 996.1
09 10:56 N 10 10.00 Fair CLR 43 27 53% 38 29.41 996.6
09 09:56 N 10 10.00 Fair CLR 41 26.1 41 30 55% 35 29.42 996.7
09 08:56 N 10 10.00 Fair CLR 37.9 26.1 62% 32 29.43 997.1
09 07:56 N 7 10.00 Fair CLR 34 25 70% 29 29.43 997.3
09 06:56 N 10 10.00 Partly Cloudy SCT055 32 25 75% 24 29.44 997.4
09 05:56 N 12 10.00 Fair CLR 30.9 26.1 82% 22 29.45 997.8
09 04:56 N 9 10.00 Fair CLR 30 26.1 85% 22 29.46 998.4
09 03:56 N 9 10.00 Fair CLR 30.9 27 37.9 30.9 85% 24 29.48 999.0
09 02:56 N 8 10.00 Fair CLR 32 27 82% 25 29.5 999.7
09 01:56 N 9 10.00 A Few Clouds FEW060 32 26.1 79% 25 29.51 1000.1
09 00:56 N 8 10.00 A Few Clouds FEW050 34 26.1 73% 28 29.53 1000.8
08 23:56 N 6 10.00 Mostly Cloudy BKN046 BKN055 35.1 30.9 85% 31 29.56 1001.5
08 22:56 NW 6 10.00 Mostly Cloudy BKN055 37 30.9 79% 33 29.57 1001.8
08 21:56 NE 7 10.00 Overcast SCT043 OVC050 37.9 32 43 37.9 79% 33 29.57 1002.1
08 20:56 N 15 G 23 10.00 Overcast FEW028 BKN036 OVC050 41 30.9 67% 34 29.59 1002.6
08 19:56 NE 7 10.00 Light Rain FEW026 BKN041 OVC060 39.9 30.9 70% 36 29.59 1002.8
08 18:56 N 7 10.00 Mostly Cloudy BKN041 39.9 33.1 77% 36 29.61 1003.6
08 17:56 N 8 10.00 Light Rain FEW017 BKN023 OVC031 39 32 76% 34 29.64 1004.5
08 16:56 N 16 G 23 10.00 Mostly Cloudy SCT026 SCT036 BKN050 41 30.9 67% 33 29.65 1004.7
08 15:56 N 10 10.00 A Few Clouds FEW022 42.1 27 43 36 55% 37 29.67 1005.3
08 14:56 N 13 G 18 10.00 Mostly Cloudy BKN016 BKN070 39.9 32 73% 33 29.69 1005.9
08 13:56 N 14 G 20 10.00 Light Rain SCT014 BKN034 OVC041 37.9 33.1 83% 30 29.7 1006.5
08 12:56 N 12 10.00 Light Rain OVC016 37 32 82% 30 29.72 1007.0
08 11:56 N 13 10.00 Overcast BKN011 OVC021 39 33.1 79% 32 29.73 1007.3
08 10:56 N 13 10.00 Overcast FEW009 BKN021 OVC070 39 33.1 79% 32 29.74 1007.5
08 09:56 N 7 10.00 Overcast OVC007 36 33.1 36 27 89% 31 29.75 1008.1
08 08:56 N 6 10.00 Mostly Cloudy BKN060 32 30.9 96% 27 29.76 1008.4
08 07:56 N 7 10.00 Fair CLR 30 28.9 96% 24 29.77 1008.8
08 06:56 N 6 10.00 Fair CLR 27 27 100% 21 29.78 1009.2
08 05:56 N 6 10.00 Fair CLR 27 27 100% 21 29.8 1009.8
08 04:56 N 7 10.00 Fair CLR 27 27 100% 20 29.81 1010.1
08 03:56 N 5 10.00 Fair CLR 28 27 46 28 96% 24 29.82 1010.6
08 02:56 Calm 10.00 Fair CLR 28.9 28 96% 29.84 1011.1
08 01:56 E 6 10.00 Fair CLR 32 30 92% 27 29.84 1011.3
08 00:56 E 7 10.00 A Few Clouds FEW085 34 30 85% 29 29.86 1011.7
07 23:56 E 8 10.00 Fair CLR 36 28 73% 30 29.86 1012.0
07 22:56 SW 6 10.00 Partly Cloudy SCT085 39 24.1 55% 35 29.87 1012.1
07 21:56 Calm 10.00 Overcast OVC060 46 19 48 44.1 34% 29.87 1012.1
07 20:56 Calm 8.00 Overcast OVC060 46 25 44% 29.88 1012.4
07 19:56 Vrbl 5 10.00 A Few Clouds FEW090 46 25 44% 44 29.89 1012.8
07 18:56 Calm 10.00 Overcast OVC090 46.9 25 42% 29.9 1013.3
07 17:56 Vrbl 5 10.00 Mostly Cloudy BKN090 46 24.1 42% 44 29.92 1013.8
07 16:56 E 9 10.00 Overcast OVC090 45 23 42% 41 29.94 1014.5
07 15:56 Calm 10.00 Overcast OVC085 44.1 16 45 30.9 32% 29.96 1015.2
07 14:56 Calm 10.00 Overcast OVC090 42.1 21 43% 29.98 1015.8
07 13:56 SE 7 10.00 Overcast OVC090 41 23 49% 37 29.99 1016.4
07 12:56 Vrbl 6 10.00 Overcast OVC085 37.9 25 60% 34 30 1016.8
07 11:56 E 5 10.00 Mostly Cloudy BKN085 36 26.1 67% 33 30.02 1017.2
07 10:56 Vrbl 3 10.00 Overcast SCT009 OVC085 35.1 27 72% 30.03 1017.5
07 09:56 Vrbl 3 10.00 Overcast OVC007 30.9 28 30.9 28 89% 30.03 1017.6
07 08:56 S 6 10.00 Overcast OVC005 30 28.9 96% 25 30.03 1017.7
07 07:56 S 5 10.00 Overcast OVC003 28.9 28.9 100% 25 30.03 1017.7
Date Time (akdt) Wind (mph) Vis. (mi.) Weather Sky Cond. Air Dwpt Max. Min. Relative Humidity Wind Chill (°F) Heat Index (°F) altimeter (in) sea level (mb) 1 hr 3 hr 6 hr
6 hour
Temperature (ºF) Pressure Precipitation (in)